This demonstration page uses our WeatherBlox Daily Observations layout. Learn more.

Left ArrowRight Arrow

47.50024, -111.30081

Hourly Observations for August 17, 2022

Temp ( °F °C ) Dew Point ( °F °C ) Humidity (%) Winds ( mph kmh ) Pressure ( in mb ) Visibility ( mi km ) Precip ( " mm )
12:53 am 00:53 Clear 65 18.3 34 1.1 31 31 W 7 11 29.98 1015 10 16 0.00 0.00
1:53 am 01:53 Clear 63 17.2 35 1.7 35 35 SSW 9 15 29.98 1015 10 16 0.00 0.00
2:53 am 02:53 Clear 60 15.6 35 1.7 39 39 SSW 9 15 30.00 1016 10 16 0.00 0.00
3:53 am 03:53 Clear 59 15 35 1.7 40 40 WSW 9 15 30.01 1016 10 16 0.00 0.00
4:53 am 04:53 Clear 60 15.6 34 1.1 37 37 SW 10 17 30.02 1017 10 16 0.00 0.00
5:53 am 05:53 Clear 59 15 34 1.1 39 39 W 13 20 30.06 1018 10 16 0.00 0.00
6:53 am 06:53 Sunny 60 15.6 46 7.8 60 60 WNW 8 13 30.09 1019 10 16 0.00 0.00
7:53 am 07:53 Sunny 65 18.3 52 11.1 63 63 NW 10 17 30.15 1021 10 16 0.00 0.00
8:53 am 08:53 Sunny 68 20 52 11.1 57 57 WNW 10 17 30.17 1022 10 16 0.00 0.00
9:53 am 09:53 Sunny 72 22.2 50 10 46 46 VRB 5 7 30.18 1022 10 16 0.00 0.00
10:53 am 10:53 Sunny 75 23.9 48 8.9 38 38 VRB 5 7 30.18 1022 10 16 0.00 0.00
11:53 am 11:53 Sunny 79 26.1 49 9.4 35 35 VRB 6 9 30.16 1021 10 16 0.00 0.00
12:53 pm 12:53 Sunny 83 28.3 49 9.4 31 31 ENE 8 13 30.16 1021 10 16 0.00 0.00
1:53 pm 13:53 Sunny 82 27.8 48 8.9 31 31 VRB 5 7 30.14 1021 10 16 0.00 0.00
2:53 pm 14:53 Sunny 87 30.6 47 8.3 25 25 N 9 15 30.13 1020 10 16 0.00 0.00
3:53 pm 15:53 Sunny 88 31.1 46 7.8 23 23 NE 10 17 30.12 1020 10 16 0.00 0.00
4:53 pm 16:53 Sunny 88 31.1 45 7.2 22 22 E 7 11 30.10 1019 10 16 0.00 0.00
5:53 pm 17:53 Sunny 87 30.6 44 6.7 22 22 ENE 8 13 30.09 1019 10 16 0.00 0.00
6:53 pm 18:53 Sunny 87 30.6 43 6.1 21 21 NE 8 13 30.07 1018 10 16 0.00 0.00
7:53 pm 19:53 Sunny 82 27.8 43 6.1 25 25 ENE 7 11 30.08 1019 10 16 0.00 0.00
8:53 pm 20:53 Clear 73 22.8 43 6.1 34 34 NNE 6 9 30.09 1019 10 16 0.00 0.00
9:53 pm 21:53 Clear 70 21.1 42 5.6 36 36 NE 9 15 30.11 1020 10 16 0.00 0.00
10:53 pm 22:53 Clear 70 21.1 43 6.1 38 38 E 8 13 30.11 1020 10 16 0.00 0.00
11:53 pm 23:53 Clear 69 20.6 43 6.1 39 39 E 7 11 30.12 1020 10 16 0.00 0.00

Powered by AerisWeather